• In Latvia
  • List of Countries
  • For 7 days
  • Water Temperature
  • Satellite Maps
  • Weather Map
  • Weather Widgets
  • user-avatar
    Login

    Hourly Weather Talsi

    Today, 20 September, Thursday

    Time Temperature Precipitation Wind Pressure Humidity
    00:00 +14°C° 0 mm 4 mps 753 mmHg 96%
    01:00 +14°C° 0 mm 4 mps 753 mmHg 96%
    02:00 +14°C° 0 mm 4 mps 753 mmHg 96%
    03:00 +14°C° 0 mm 4 mps 753 mmHg 96%
    04:00 +14°C° 0 mm 4 mps 753 mmHg 96%
    05:00 +14°C° 0 mm 4 mps 753 mmHg 96%
    06:00 +15°C° 0 mm 4 mps 753 mmHg 91%
    07:00 +16°C° 0 mm 5 mps 753 mmHg 87%
    08:00 +16°C° 0 mm 5 mps 753 mmHg 82%
    09:00 +19°C° 0 mm 5 mps 753 mmHg 76%
    10:00 +21°C° 0 mm 6 mps 753 mmHg 71%
    11:00 +22°C° 0 mm 6 mps 753 mmHg 65%
    12:00 +22°C° 0 mm 6 mps 753 mmHg 63%
    13:00 +23°C° 0 mm 6 mps 753 mmHg 61%
    14:00 +23°C° 0 mm 6 mps 753 mmHg 59%
    15:00 +22°C° 0 mm 6 mps 753 mmHg 62%
    16:00 +22°C° 0 mm 5 mps 753 mmHg 65%
    17:00 +21°C° 0 mm 5 mps 753 mmHg 68%
    18:00 +20°C° 0 mm 4 mps 753 mmHg 74%
    19:00 +18°C° 0 mm 4 mps 753 mmHg 81%
    20:00 +17°C° 0 mm 4 mps 753 mmHg 87%
    21:00 +17°C° 0 mm 4 mps 753 mmHg 88%
    22:00 +15°C° 0 mm 4 mps 753 mmHg 89%
    23:00 +15°C° 0 mm 5 mps 753 mmHg 89%

    Tomorrow, 21 September, Friday

    Time Temperature Precipitation Wind Pressure Humidity
    00:00 +15°C° 0 mm 4 mps 753 mmHg 89%
    01:00 +15°C° 0 mm 4 mps 753 mmHg 89%
    02:00 +15°C° 0 mm 4 mps 753 mmHg 89%
    03:00 +14°C° 0 mm 4 mps 752 mmHg 89%
    04:00 +14°C° 0 mm 4 mps 752 mmHg 88%
    05:00 +14°C° 0 mm 4 mps 752 mmHg 88%
    06:00 +15°C° 0 mm 4 mps 752 mmHg 84%
    07:00 +16°C° 0 mm 5 mps 751 mmHg 80%
    08:00 +17°C° 0 mm 5 mps 751 mmHg 77%
    09:00 +20°C° 0 mm 6 mps 751 mmHg 71%
    10:00 +22°C° 0 mm 6 mps 750 mmHg 66%
    11:00 +24°C° 0 mm 7 mps 750 mmHg 60%
    12:00 +26°C° 0 mm 7 mps 749 mmHg 57%
    13:00 +27°C° 0 mm 7 mps 749 mmHg 54%
    14:00 +27°C° 0 mm 8 mps 748 mmHg 51%
    15:00 +27°C° 0 mm 7 mps 748 mmHg 52%
    16:00 +26°C° 0 mm 7 mps 747 mmHg 54%
    17:00 +24°C° 0 mm 7 mps 746 mmHg 55%
    18:00 +23°C° 0 mm 7 mps 746 mmHg 54%
    19:00 +22°C° 0 mm 8 mps 745 mmHg 54%
    20:00 +22°C° 0 mm 8 mps 744 mmHg 53%
    21:00 +21°C° 0 mm 8 mps 744 mmHg 57%
    22:00 +20°C° 0 mm 8 mps 744 mmHg 62%
    23:00 +18°C° 0 mm 8 mps 744 mmHg 66%

    Day after tomorrow, 22 September, Saturday

    Time Temperature Precipitation Wind Pressure Humidity
    00:00 +16°C° 0.5 mm 7 mps 744 mmHg 73%
    01:00 +14°C° 0.5 mm 7 mps 744 mmHg 79%
    02:00 +11°C° 0.5 mm 6 mps 745 mmHg 85%
    03:00 +11°C° 0.2 mm 6 mps 745 mmHg 83%
    04:00 +10°C° 0.2 mm 6 mps 745 mmHg 81%
    05:00 +10°C° 0.2 mm 6 mps 745 mmHg 79%
    06:00 +11°C° 0 mm 7 mps 745 mmHg 78%
    07:00 +11°C° 0 mm 7 mps 745 mmHg 77%
    08:00 +11°C° 0 mm 8 mps 746 mmHg 75%
    09:00 +12°C° 0.3 mm 8 mps 746 mmHg 72%
    10:00 +12°C° 0.3 mm 8 mps 746 mmHg 69%
    11:00 +13°C° 0.3 mm 8 mps 746 mmHg 66%
    12:00 +13°C° 0.1 mm 8 mps 746 mmHg 62%
    13:00 +15°C° 0.1 mm 8 mps 747 mmHg 57%
    14:00 +15°C° 0.1 mm 8 mps 747 mmHg 53%
    15:00 +13°C° 0 mm 8 mps 747 mmHg 54%
    16:00 +14°C° 0 mm 7 mps 747 mmHg 55%
    17:00 +14°C° 0 mm 6 mps 747 mmHg 56%
    18:00 +13°C° 0 mm 6 mps 747 mmHg 61%
    19:00 +11°C° 0 mm 6 mps 747 mmHg 65%
    20:00 +10°C° 0 mm 6 mps 747 mmHg 69%
    21:00 +10°C° 0.3 mm 6 mps 747 mmHg 73%
    22:00 +10°C° 0.3 mm 6 mps 747 mmHg 77%
    23:00 +9°C° 0.3 mm 6 mps 746 mmHg 81%

    23 September, Sunday

    Time Temperature Precipitation Wind Pressure Humidity
    00:00 +9°C° 0.4 mm 6 mps 746 mmHg 83%
    01:00 +9°C° 0.4 mm 6 mps 746 mmHg 85%
    02:00 +8°C° 0.4 mm 6 mps 745 mmHg 87%
    03:00 +8°C° 0.2 mm 6 mps 745 mmHg 87%
    04:00 +8°C° 0.2 mm 6 mps 745 mmHg 87%
    05:00 +8°C° 0.2 mm 6 mps 744 mmHg 86%
    06:00 +8°C° 0.5 mm 6 mps 744 mmHg 85%
    07:00 +9°C° 0.5 mm 6 mps 744 mmHg 84%
    08:00 +9°C° 0.5 mm 6 mps 744 mmHg 83%
    09:00 +10°C° 0.4 mm 7 mps 744 mmHg 81%
    10:00 +11°C° 0.4 mm 7 mps 745 mmHg 79%
    11:00 +11°C° 0.4 mm 7 mps 745 mmHg 76%
    12:00 +12°C° 0.4 mm 7 mps 746 mmHg 75%
    13:00 +13°C° 0.4 mm 6 mps 746 mmHg 74%
    14:00 +13°C° 0.4 mm 6 mps 746 mmHg 73%
    15:00 +13°C° 0.3 mm 5 mps 746 mmHg 75%
    16:00 +13°C° 0.3 mm 4 mps 747 mmHg 77%
    17:00 +12°C° 0.3 mm 4 mps 747 mmHg 80%
    18:00 +11°C° 0 mm 3 mps 747 mmHg 84%
    19:00 +10°C° 0 mm 3 mps 747 mmHg 88%
    20:00 +9°C° 0 mm 2 mps 747 mmHg 92%
    21:00 +8°C° 0 mm 2 mps 747 mmHg 93%
    22:00 +8°C° 0 mm 3 mps 746 mmHg 93%
    23:00 +8°C° 0 mm 3 mps 746 mmHg 94%

    24 September, Monday

    Time Temperature Precipitation Wind Pressure Humidity
    00:00 +8°C° 0 mm 3 mps 746 mmHg 93%
    01:00 +8°C° 0 mm 3 mps 745 mmHg 93%
    02:00 +8°C° 0 mm 3 mps 745 mmHg 92%
    03:00 +8°C° 0 mm 3 mps 744 mmHg 92%
    04:00 +7°C° 0 mm 3 mps 744 mmHg 92%
    05:00 +7°C° 0 mm 3 mps 743 mmHg 92%
    06:00 +7°C° 0.2 mm 4 mps 743 mmHg 91%
    07:00 +7°C° 0.2 mm 4 mps 742 mmHg 90%
    08:00 +7°C° 0.2 mm 5 mps 742 mmHg 89%
    09:00 +7°C° 0.9 mm 5 mps 741 mmHg 89%
    10:00 +7°C° 0.9 mm 6 mps 740 mmHg 89%
    11:00 +6°C° 0.9 mm 7 mps 739 mmHg 89%
    12:00 +6°C° 2.5 mm 7 mps 739 mmHg 89%
    13:00 +6°C° 2.5 mm 8 mps 738 mmHg 90%
    14:00 +6°C° 2.5 mm 9 mps 738 mmHg 90%
    15:00 +6°C° 1.7 mm 9 mps 738 mmHg 90%
    16:00 +6°C° 1.7 mm 10 mps 738 mmHg 89%
    17:00 +6°C° 1.7 mm 10 mps 738 mmHg 89%
    18:00 +6°C° 1.8 mm 10 mps 738 mmHg 88%
    19:00 +6°C° 1.8 mm 10 mps 739 mmHg 88%
    20:00 +6°C° 1.8 mm 10 mps 739 mmHg 87%
    21:00 +6°C° 0.5 mm 10 mps 740 mmHg 86%
    22:00 +6°C° 0.5 mm 10 mps 740 mmHg 84%
    23:00 +6°C° 0.5 mm 10 mps 740 mmHg 83%

    25 September, Tuesday

    Time Temperature Precipitation Wind Pressure Humidity
    00:00 +6°C° 0.3 mm 10 mps 741 mmHg 82%
    01:00 +6°C° 0.3 mm 10 mps 742 mmHg 81%
    02:00 +6°C° 0.3 mm 10 mps 742 mmHg 80%
    03:00 +5°C° 0.1 mm 9 mps 743 mmHg 79%
    04:00 +5°C° 0.1 mm 9 mps 743 mmHg 77%
    05:00 +5°C° 0.1 mm 9 mps 744 mmHg 76%
    06:00 +5°C° 0 mm 9 mps 745 mmHg 73%
    07:00 +5°C° 0 mm 9 mps 745 mmHg 70%
    08:00 +5°C° 0 mm 9 mps 746 mmHg 67%
    09:00 +6°C° 0.1 mm 10 mps 747 mmHg 63%
    10:00 +7°C° 0.1 mm 10 mps 747 mmHg 59%
    11:00 +8°C° 0.1 mm 11 mps 748 mmHg 55%
    12:00 +8°C° 0.1 mm 11 mps 749 mmHg 52%
    13:00 +8°C° 0.1 mm 11 mps 749 mmHg 50%
    14:00 +8°C° 0.1 mm 10 mps 750 mmHg 47%
    15:00 +8°C° 0.1 mm 10 mps 751 mmHg 50%
    16:00 +7°C° 0.1 mm 10 mps 751 mmHg 54%
    17:00 +7°C° 0.1 mm 9 mps 752 mmHg 57%
    18:00 +6°C° 0.2 mm 9 mps 752 mmHg 61%
    19:00 +5°C° 0.2 mm 9 mps 753 mmHg 64%
    20:00 +5°C° 0.2 mm 8 mps 753 mmHg 68%
    21:00 +5°C° 0.1 mm 8 mps 754 mmHg 68%
    22:00 +5°C° 0.1 mm 8 mps 754 mmHg 69%
    23:00 +5°C° 0.1 mm 7 mps 754 mmHg 70%
    Show more